EW3453 Weather Reports


time (UTC)temp
C
wind
direction
speed
KPH
gust
KPH
rain 1hr
cm
rain 24hr
cm
rain mn
cm
humidity
%
barometer
mb
20260504044528 6 285 0.0 1.6 0.00 0.00 0.00 67 1014.4
20260504043025 6 285 0.0 1.6 0.00 0.00 0.00 65 1014.4
20260504041524 6 285 0.0 0.0 0.00 0.00 0.00 64 1014.4
20260504040022 6 285 0.0 1.6 0.00 0.00 0.00 63 1014.4
20260504034522 6 285 0.0 0.0 0.00 0.00 0.00 63 1014.2
20260504033021 7 285 0.0 0.0 0.00 0.00 0.00 63 1014.2
20260504031521 7 285 0.0 1.6 0.00 0.00 0.00 61 1014.2
20260504030019 7 285 0.0 0.0 0.00 0.00 0.00 61 1014.2
20260504024519 7 285 0.0 0.0 0.00 0.00 0.00 60 1014.4
20260504023019 7 285 0.0 1.6 0.00 0.00 0.00 61 1014.4
20260504021518 7 285 0.0 0.0 0.00 0.00 0.00 60 1014.4
20260504020025 7 285 0.0 0.0 0.00 0.00 0.00 59 1014.4
20260504014517 8 274 0.0 1.6 0.00 0.00 0.00 58 1014.2
20260504013022 8 274 0.0 0.0 0.00 0.00 0.00 57 1014.2
20260504011517 8 274 0.0 0.0 0.00 0.00 0.00 55 1014.0
20260504010015 9 274 0.0 1.6 0.00 0.00 0.00 53 1014.1
20260504004532 10 274 0.0 1.6 0.00 0.00 0.00 52 1014.0
20260504003017 10 274 0.0 1.6 0.00 0.00 0.00 50 1013.9
20260504001528 10 104 0.0 1.6 0.00 0.00 0.00 48 1013.7
20260504000013 11 104 0.0 1.6 0.00 0.00 0.00 47 1013.7
20260503234517 12 103 0.0 6.4 0.00 0.00 0.00 43 1013.7
20260503233013 12 225 0.0 6.4 0.00 0.00 0.00 43 1013.6
20260503231512 12 243 1.6 6.4 0.00 0.00 0.00 42 1013.6
20260503230014 12 53 1.6 11.3 0.00 0.00 0.00 42 1013.7
20260503224510 13 13 0.0 9.7 0.00 0.00 0.00 42 1013.6
20260503223011 12 58 1.6 8.0 0.00 0.00 0.00 42 1013.7
20260503221510 12 72 1.6 8.0 0.00 0.00 0.00 41 1013.8
20260503220020 13 39 4.8 24.1 0.00 0.00 0.00 41 1013.8
20260503214519 13 274 1.6 19.3 0.00 0.00 0.00 39 1013.8
20260503213011 13 72 4.8 14.5 0.00 0.00 0.00 40 1013.7
20260503211505 13 104 6.4 16.1 0.00 0.00 0.00 40 1013.5
20260503210003 13 266 1.6 14.5 0.00 0.00 0.00 41 1013.8
20260503204502 13 20 3.2 14.5 0.00 0.00 0.00 39 1013.8
20260503203002 13 41 6.4 12.9 0.00 0.00 0.00 39 1014.0
20260503201600 13 127 1.6 17.7 0.00 0.00 0.00 41 1014.0
20260503200058 13 20 4.8 14.5 0.00 0.00 0.00 39 1014.1
20260503194621 13 55 6.4 17.7 0.00 0.00 0.00 39 1014.3
20260503193055 13 86 3.2 11.3 0.00 0.00 0.00 41 1014.5
20260503191558 13 48 1.6 12.9 0.00 0.00 0.00 41 1014.7
20260503190052 12 54 0.0 14.5 0.00 0.00 0.00 42 1014.8
20260503184551 12 27 6.4 16.1 0.00 0.00 0.00 41 1015.0
20260503183055 12 295 3.2 9.7 0.00 0.00 0.00 40 1015.0
20260503181559 12 41 3.2 17.7 0.00 0.00 0.00 40 1015.2
20260503180050 12 59 3.2 11.3 0.00 0.00 0.00 42 1015.3
20260503174547 12 55 8.0 20.9 0.00 0.00 0.00 43 1015.4
20260503173041 11 340 1.6 16.1 0.00 0.00 0.00 44 1015.4
20260503171539 11 62 3.2 14.5 0.00 0.00 0.00 42 1015.5
20260503081520 2 46 1.6 4.8 0.00 0.00 0.00 72 1015.6
20260503071508 2 63 0.0 3.2 0.00 0.00 0.00 72 1015.3
20260503054553 2 25 0.0 6.4 0.00 0.08 0.00 69 1015.3
20260503053051 3 49 1.6 6.4 0.00 0.08 0.00 67 1015.5
20260503051550 3 31 1.6 8.0 0.00 0.08 0.00 66 1015.5
20260503050046 3 64 0.0 4.8 0.00 0.08 0.00 66 1015.5